QPF
0.03 0.04 0.05 0.06 0.06 0.06 0.05 0.06 0.06 0.06 0.07 0.08 0.09 0.09 0.06 0.05 0.04 0.04 0.04 0.07 0.07 0.07 0.08 0.07 0.06 0.07 0.07 0.07 0.06 0.06 0.05 0.04 0.04 0.03 0.03 0.03 0.03 0.03 0.04 0.05 0.06 0.06 0.05
0.02 0.02 0.02 0.03 0.03 0.04 0.04 0.04 0.05 0.04 0.04 0.05 0.06 0.09 0.07 0.05 0.05 0.05 0.04 0.04 0.05 0.05 0.06 0.06 0.06 0.07 0.07 0.07 0.06 0.05 0.05 0.06 0.06 0.06 0.04 0.03 0.04 0.04 0.04 0.05 0.07 0.08 0.07
0.01 0.01 0.01 0.01 0.02 0.02 0.02 0.02 0.03 0.03 0.03 0.03 0.04 0.05 0.05 0.05 0.07 0.07 0.06 0.05 0.05 0.06 0.05 0.06 0.07 0.07 0.06 0.06 0.07 0.08 0.08 0.09 0.08 0.06 0.04 0.03 0.03 0.03 0.03 0.04 0.06 0.07 0.07
0.01 0.00 0.01 0.01 0.02 0.02 0.02 0.03 0.03 0.02 0.02 0.02 0.02 0.02 0.03 0.04 0.05 0.06 0.07 0.07 0.06 0.04 0.05 0.05 0.06 0.07 0.06 0.06 0.07 0.07 0.06 0.06 0.05 0.03 0.03 0.04 0.03 0.03 0.05 0.05 0.06 0.06 0.06
0.01 0.01 0.01 0.01 0.01 0.02 0.01 0.02 0.03 0.03 0.03 0.02 0.02 0.02 0.04 0.05 0.07 0.06 0.07 0.08 0.07 0.05 0.04 0.04 0.05 0.05 0.06 0.06 0.06 0.05 0.04 0.04 0.04 0.03 0.03 0.04 0.04 0.05 0.06 0.08 0.08 0.06 0.05
0.00 0.00 0.01 0.01 0.01 0.02 0.02 0.02 0.03 0.03 0.02 0.02 0.03 0.04 0.06 0.07 0.06 0.06 0.07 0.10 0.09 0.06 0.05 0.04 0.04 0.05 0.06 0.06 0.06 0.05 0.05 0.04 0.03 0.03 0.03 0.04 0.04 0.05 0.06 0.07 0.10 0.10 0.07
0.00 0.00 0.00 0.01 0.01 0.02 0.02 0.02 0.03 0.04 0.03 0.02 0.03 0.04 0.05 0.06 0.06 0.05 0.05 0.06 0.07 0.07 0.09 0.08 0.05 0.05 0.04 0.05 0.05 0.04 0.06 0.06 0.05 0.04 0.03 0.03 0.03 0.03 0.03 0.03 0.06 0.10 0.10
0.01 0.01 0.02 0.02 0.01 0.01 0.02 0.02 0.04 0.04 0.03 0.03 0.04 0.04 0.03 0.04 0.05 0.07 0.07 0.05 0.05 0.06 0.06 0.06 0.08 0.08 0.06 0.05 0.04 0.04 0.06 0.07 0.07 0.06 0.05 0.04 0.04 0.05 0.05 0.04 0.04 0.05 0.09
0.02 0.02 0.04 0.03 0.02 0.02 0.02 0.02 0.03 0.04 0.02 0.02 0.03 0.04 0.03 0.03 0.05 0.07 0.07 0.08 0.08 0.07 0.06 0.06 0.10 0.13 0.13 0.08 0.04 0.05 0.06 0.06 0.07 0.08 0.07 0.07 0.08 0.08 0.07 0.06 0.06 0.05 0.07
0.04 0.05 0.06 0.07 0.04 0.03 0.03 0.02 0.02 0.03 0.02 0.01 0.02 0.02 0.03 0.04 0.05 0.06 0.06 0.08 0.07 0.06 0.06 0.06 0.06 0.11 0.15 0.10 0.07 0.06 0.07 0.06 0.06 0.07 0.07 0.07 0.08 0.08 0.08 0.08 0.07 0.07 0.07
0.08 0.07 0.10 0.09 0.06 0.04 0.04 0.03 0.02 0.01 0.01 0.01 0.01 0.02 0.02 0.03 0.03 0.03 0.04 0.06 0.08 0.09 0.09 0.08 0.07 0.10 0.13 0.08 0.07 0.08 0.10 0.09 0.07 0.05 0.05 0.05 0.05 0.06 0.07 0.08 0.07 0.08 0.09
0.05 0.05 0.07 0.12 0.12 0.07 0.03 0.02 0.02 0.02 0.01 0.01 0.01 0.01 0.01 0.02 0.02 0.04 0.04 0.05 0.06 0.09 0.12 0.08 0.07 0.10 0.13 0.08 0.07 0.08 0.08 0.07 0.07 0.06 0.05 0.04 0.03 0.03 0.04 0.05 0.06 0.06 0.08
0.03 0.03 0.04 0.05 0.06 0.04 0.03 0.02 0.02 0.02 0.01 0.01 0.01 0.01 0.01 0.01 0.02 0.03 0.04 0.04 0.04 0.06 0.07 0.06 0.05 0.08 0.11 0.08 0.07 0.07 0.06 0.04 0.04 0.04 0.06 0.07 0.04 0.03 0.03 0.03 0.05 0.05 0.06
0.04 0.03 0.03 0.04 0.04 0.03 0.02 0.02 0.03 0.02 0.01 0.01 0.01 0.01 0.01 0.01 0.01 0.02 0.03 0.04 0.05 0.05 0.04 0.04 0.05 0.06 0.07 0.06 0.06 0.05 0.04 0.04 0.03 0.03 0.03 0.05 0.06 0.05 0.03 0.02 0.03 0.04 0.05
0.05 0.05 0.04 0.04 0.03 0.02 0.02 0.02 0.02 0.03 0.01 0.01 0.00 0.01 0.01 0.00 0.01 0.01 0.02 0.03 0.04 0.03 0.03 0.02 0.03 0.04 0.04 0.04 0.06 0.06 0.04 0.04 0.04 0.04 0.04 0.04 0.07 0.07 0.04 0.03 0.02 0.02 0.03
0.05 0.05 0.04 0.04 0.03 0.03 0.02 0.02 0.03 0.03 0.02 0.01 0.01 0.01 0.01 0.01 0.01 0.01 0.02 0.02 0.03 0.03 0.03 0.03 0.03 0.04 0.04 0.03 0.06 0.06 0.05 0.05 0.05 0.05 0.05 0.03 0.04 0.06 0.06 0.04 0.04 0.03 0.03
0.06 0.05 0.04 0.04 0.03 0.02 0.02 0.02 0.02 0.03 0.03 0.02 0.01 0.01 0.01 0.01 0.01 0.01 0.01 0.02 0.03 0.02 0.02 0.03 0.03 0.03 0.04 0.05 0.05 0.04 0.04 0.03 0.03 0.03 0.02 0.02 0.02 0.03 0.05 0.05 0.05 0.04 0.04
0.06 0.06 0.06 0.05 0.04 0.02 0.02 0.01 0.01 0.02 0.02 0.02 0.02 0.02 0.02 0.02 0.02 0.02 0.01 0.02 0.02 0.03 0.03 0.03 0.03 0.02 0.03 0.03 0.04 0.03 0.03 0.02 0.02 0.02 0.02 0.02 0.02 0.03 0.04 0.05 0.07 0.06 0.04
0.11 0.09 0.07 0.06 0.04 0.03 0.03 0.02 0.03 0.03 0.02 0.02 0.02 0.01 0.02 0.03 0.02 0.02 0.02 0.01 0.02 0.03 0.04 0.04 0.03 0.02 0.02 0.03 0.03 0.03 0.03 0.02 0.03 0.03 0.02 0.03 0.04 0.04 0.03 0.04 0.06 0.07 0.06
0.12 0.09 0.07 0.06 0.05 0.05 0.04 0.03 0.03 0.03 0.02 0.02 0.01 0.01 0.01 0.02 0.02 0.02 0.02 0.02 0.02 0.03 0.03 0.04 0.03 0.02 0.03 0.03 0.03 0.02 0.02 0.02 0.02 0.02 0.03 0.02 0.02 0.03 0.03 0.03 0.04 0.05 0.05
0.07 0.06 0.05 0.06 0.05 0.04 0.04 0.04 0.03 0.02 0.01 0.01 0.01 0.01 0.01 0.02 0.03 0.03 0.03 0.03 0.04 0.04 0.04 0.04 0.03 0.02 0.01 0.02 0.03 0.02 0.03 0.02 0.02 0.01 0.02 0.01 0.01 0.02 0.03 0.03 0.03 0.04 0.04
0.08 0.06 0.05 0.05 0.04 0.04 0.05 0.05 0.04 0.03 0.02 0.01 0.01 0.01 0.02 0.02 0.03 0.03 0.04 0.04 0.04 0.04 0.04 0.03 0.03 0.02 0.01 0.01 0.02 0.03 0.03 0.02 0.02 0.01 0.01 0.02 0.02 0.02 0.02 0.03 0.03 0.03 0.04
0.10 0.06 0.05 0.05 0.04 0.05 0.04 0.04 0.05 0.04 0.03 0.02 0.01 0.01 0.01 0.01 0.02 0.02 0.03 0.03 0.03 0.03 0.03 0.03 0.02 0.01 0.01 0.01 0.02 0.02 0.03 0.03 0.03 0.02 0.02 0.02 0.02 0.02 0.02 0.02 0.03 0.03 0.03
0.08 0.05 0.04 0.04 0.04 0.04 0.04 0.04 0.03 0.03 0.02 0.01 0.01 0.01 0.01 0.01 0.02 0.02 0.03 0.02 0.02 0.02 0.03 0.03 0.02 0.01 0.01 0.01 0.02 0.02 0.03 0.03 0.03 0.02 0.02 0.02 0.02 0.02 0.02 0.02 0.02 0.02 0.02
0.03 0.02 0.02 0.02 0.02 0.03 0.04 0.04 0.04 0.03 0.02 0.01 0.01 0.01 0.01 0.01 0.02 0.03 0.03 0.03 0.02 0.02 0.01 0.01 0.01 0.02 0.02 0.02 0.02 0.04 0.04 0.04 0.03 0.02 0.03 0.03 0.02 0.02 0.02 0.02 0.02 0.02 0.01
0.01 0.02 0.02 0.02 0.02 0.02 0.03 0.03 0.03 0.01 0.01 0.01 0.01 0.01 0.01 0.02 0.02 0.03 0.03 0.03 0.02 0.01 0.01 0.01 0.01 0.01 0.01 0.02 0.03 0.03 0.03 0.03 0.03 0.03 0.03 0.04 0.04 0.02 0.02 0.02 0.02 0.02 0.02
MSLP
1013.30 1013.27 1013.19 1013.07 1012.93 1012.79 1012.66 1012.58 1012.53 1012.52 1012.55 1012.62 1012.72 1012.85 1013.02 1013.21 1013.43 1013.68 1013.93 1014.19 1014.44 1014.68 1014.89 1015.08 1015.25 1015.41 1015.56 1015.72 1015.88 1016.03 1016.19 1016.35 1016.51 1016.66 1016.81 1016.95 1017.09 1017.24 1017.38 1017.52 1017.67 1017.82 1017.97
1013.29 1013.28 1013.22 1013.12 1013.00 1012.86 1012.75 1012.66 1012.61 1012.62 1012.67 1012.76 1012.90 1013.05 1013.23 1013.43 1013.63 1013.83 1014.04 1014.24 1014.44 1014.63 1014.82 1015.01 1015.19 1015.36 1015.53 1015.70 1015.86 1016.02 1016.17 1016.33 1016.48 1016.64 1016.80 1016.95 1017.10 1017.24 1017.37 1017.49 1017.61 1017.73 1017.88
1013.28 1013.28 1013.25 1013.18 1013.09 1012.99 1012.89 1012.81 1012.77 1012.78 1012.84 1012.95 1013.10 1013.27 1013.44 1013.61 1013.78 1013.92 1014.06 1014.19 1014.32 1014.47 1014.63 1014.81 1015.00 1015.20 1015.39 1015.58 1015.77 1015.94 1016.10 1016.26 1016.41 1016.57 1016.73 1016.89 1017.04 1017.18 1017.31 1017.42 1017.53 1017.64 1017.78
1013.22 1013.25 1013.26 1013.25 1013.20 1013.14 1013.06 1013.00 1012.97 1012.98 1013.04 1013.15 1013.29 1013.45 1013.61 1013.75 1013.86 1013.93 1013.99 1014.05 1014.11 1014.20 1014.33 1014.50 1014.71 1014.93 1015.17 1015.40 1015.61 1015.80 1015.98 1016.14 1016.30 1016.47 1016.63 1016.79 1016.95 1017.09 1017.22 1017.33 1017.43 1017.54 1017.67
1013.12 1013.18 1013.24 1013.28 1013.29 1013.28 1013.24 1013.20 1013.17 1013.18 1013.23 1013.33 1013.46 1013.60 1013.73 1013.83 1013.88 1013.89 1013.88 1013.85 1013.85 1013.89 1013.99 1014.15 1014.37 1014.63 1014.90 1015.18 1015.43 1015.66 1015.86 1016.04 1016.20 1016.37 1016.53 1016.69 1016.85 1016.99 1017.12 1017.23 1017.33 1017.44 1017.57
1012.97 1013.06 1013.17 1013.28 1013.35 1013.39 1013.39 1013.38 1013.36 1013.36 1013.40 1013.48 1013.59 1013.71 1013.81 1013.88 1013.89 1013.85 1013.77 1013.69 1013.63 1013.63 1013.70 1013.85 1014.08 1014.36 1014.67 1014.99 1015.28 1015.54 1015.77 1015.97 1016.15 1016.31 1016.47 1016.63 1016.78 1016.92 1017.05 1017.16 1017.26 1017.37 1017.49
1012.80 1012.92 1013.07 1013.23 1013.37 1013.46 1013.50 1013.51 1013.50 1013.50 1013.53 1013.60 1013.69 1013.80 1013.89 1013.94 1013.93 1013.86 1013.75 1013.63 1013.53 1013.49 1013.53 1013.66 1013.89 1014.19 1014.52 1014.87 1015.19 1015.49 1015.74 1015.96 1016.15 1016.32 1016.48 1016.63 1016.78 1016.91 1017.03 1017.14 1017.23 1017.33 1017.44
1012.66 1012.77 1012.95 1013.15 1013.34 1013.47 1013.55 1013.58 1013.58 1013.59 1013.61 1013.67 1013.77 1013.87 1013.97 1014.03 1014.03 1013.97 1013.85 1013.72 1013.59 1013.52 1013.53 1013.64 1013.85 1014.13 1014.46 1014.82 1015.16 1015.48 1015.75 1015.99 1016.19 1016.38 1016.54 1016.69 1016.83 1016.96 1017.07 1017.16 1017.24 1017.32 1017.42
1012.54 1012.65 1012.83 1013.05 1013.26 1013.42 1013.53 1013.57 1013.58 1013.59 1013.62 1013.69 1013.80 1013.93 1014.06 1014.16 1014.20 1014.17 1014.08 1013.95 1013.82 1013.73 1013.70 1013.77 1013.93 1014.18 1014.48 1014.82 1015.15 1015.47 1015.75 1016.00 1016.22 1016.41 1016.59 1016.75 1016.90 1017.02 1017.12 1017.20 1017.27 1017.33 1017.40
1012.48 1012.55 1012.72 1012.93 1013.14 1013.31 1013.42 1013.47 1013.49 1013.50 1013.53 1013.62 1013.75 1013.93 1014.11 1014.28 1014.38 1014.42 1014.38 1014.28 1014.16 1014.05 1013.99 1014.00 1014.10 1014.28 1014.52 1014.80 1015.10 1015.40 1015.67 1015.93 1016.16 1016.37 1016.56 1016.73 1016.89 1017.02 1017.12 1017.20 1017.26 1017.31 1017.36
1012.44 1012.47 1012.60 1012.79 1012.98 1013.14 1013.24 1013.28 1013.29 1013.30 1013.34 1013.44 1013.61 1013.83 1014.09 1014.33 1014.52 1014.63 1014.66 1014.62 1014.52 1014.40 1014.31 1014.26 1014.28 1014.37 1014.52 1014.72 1014.96 1015.20 1015.45 1015.70 1015.93 1016.16 1016.37 1016.57 1016.74 1016.89 1017.01 1017.09 1017.15 1017.20 1017.24
1012.39 1012.39 1012.48 1012.63 1012.79 1012.92 1012.99 1013.01 1013.00 1013.00 1013.04 1013.15 1013.35 1013.62 1013.94 1014.26 1014.54 1014.75 1014.86 1014.88 1014.82 1014.71 1014.58 1014.47 1014.41 1014.40 1014.45 1014.55 1014.70 1014.88 1015.08 1015.29 1015.52 1015.75 1015.98 1016.21 1016.41 1016.59 1016.73 1016.83 1016.91 1016.96 1017.00
1012.30 1012.28 1012.34 1012.46 1012.58 1012.67 1012.71 1012.70 1012.66 1012.63 1012.66 1012.77 1012.98 1013.29 1013.66 1014.06 1014.43 1014.73 1014.92 1015.01 1015.00 1014.91 1014.77 1014.61 1014.47 1014.37 1014.31 1014.31 1014.36 1014.46 1014.59 1014.76 1014.96 1015.18 1015.42 1015.66 1015.89 1016.10 1016.27 1016.40 1016.50 1016.57 1016.62
1012.16 1012.14 1012.19 1012.28 1012.37 1012.42 1012.43 1012.38 1012.31 1012.25 1012.26 1012.35 1012.57 1012.89 1013.30 1013.75 1014.19 1014.57 1014.85 1015.01 1015.05 1014.99 1014.86 1014.68 1014.49 1014.31 1014.16 1014.06 1014.01 1014.01 1014.07 1014.17 1014.33 1014.52 1014.75 1014.99 1015.23 1015.46 1015.66 1015.82 1015.94 1016.03 1016.11
1011.97 1011.97 1012.03 1012.12 1012.19 1012.23 1012.21 1012.13 1012.03 1011.94 1011.92 1011.99 1012.19 1012.51 1012.93 1013.41 1013.89 1014.33 1014.67 1014.90 1015.01 1015.00 1014.89 1014.71 1014.50 1014.27 1014.06 1013.88 1013.75 1013.66 1013.63 1013.66 1013.75 1013.89 1014.07 1014.29 1014.52 1014.74 1014.96 1015.14 1015.28 1015.40 1015.49
1011.77 1011.81 1011.90 1012.01 1012.09 1012.13 1012.10 1012.02 1011.90 1011.79 1011.74 1011.78 1011.95 1012.25 1012.65 1013.13 1013.62 1014.09 1014.48 1014.77 1014.93 1014.97 1014.91 1014.76 1014.56 1014.32 1014.08 1013.85 1013.65 1013.49 1013.38 1013.33 1013.34 1013.40 1013.52 1013.68 1013.86 1014.06 1014.26 1014.44 1014.59 1014.72 1014.83
1011.59 1011.69 1011.83 1011.97 1012.10 1012.16 1012.15 1012.08 1011.97 1011.85 1011.78 1011.80 1011.93 1012.19 1012.55 1013.00 1013.48 1013.95 1014.35 1014.67 1014.88 1014.97 1014.96 1014.87 1014.70 1014.49 1014.26 1014.02 1013.78 1013.57 1013.39 1013.26 1013.18 1013.15 1013.17 1013.25 1013.36 1013.50 1013.65 1013.80 1013.94 1014.07 1014.18
1011.46 1011.62 1011.82 1012.02 1012.20 1012.31 1012.35 1012.31 1012.22 1012.12 1012.05 1012.05 1012.16 1012.37 1012.68 1013.08 1013.51 1013.94 1014.34 1014.66 1014.89 1015.02 1015.06 1015.02 1014.91 1014.76 1014.56 1014.34 1014.11 1013.88 1013.65 1013.45 1013.29 1013.16 1013.08 1013.05 1013.07 1013.12 1013.20 1013.29 1013.40 1013.50 1013.61
1011.38 1011.60 1011.86 1012.12 1012.36 1012.54 1012.64 1012.67 1012.63 1012.57 1012.52 1012.51 1012.59 1012.77 1013.02 1013.35 1013.72 1014.09 1014.44 1014.73 1014.95 1015.11 1015.19 1015.20 1015.16 1015.07 1014.93 1014.76 1014.56 1014.34 1014.10 1013.85 1013.62 1013.41 1013.22 1013.09 1012.99 1012.94 1012.93 1012.95 1013.00 1013.07 1013.15
1011.32 1011.59 1011.90 1012.23 1012.53 1012.79 1012.96 1013.06 1013.09 1013.08 1013.07 1013.09 1013.16 1013.30 1013.51 1013.76 1014.05 1014.35 1014.62 1014.86 1015.06 1015.20 1015.30 1015.36 1015.37 1015.35 1015.29 1015.18 1015.04 1014.85 1014.62 1014.36 1014.09 1013.81 1013.55 1013.31 1013.11 1012.96 1012.85 1012.79 1012.77 1012.79 1012.84
1011.23 1011.54 1011.90 1012.28 1012.65 1012.97 1013.22 1013.39 1013.50 1013.56 1013.60 1013.66 1013.74 1013.86 1014.03 1014.23 1014.44 1014.65 1014.85 1015.02 1015.16 1015.27 1015.36 1015.44 1015.49 1015.53 1015.54 1015.51 1015.44 1015.30 1015.12 1014.87 1014.59 1014.28 1013.96 1013.65 1013.37 1013.13 1012.94 1012.80 1012.72 1012.68 1012.68
1011.05 1011.40 1011.81 1012.24 1012.66 1013.03 1013.35 1013.59 1013.77 1013.90 1014.00 1014.10 1014.21 1014.34 1014.48 1014.64 1014.79 1014.92 1015.04 1015.13 1015.21 1015.27 1015.34 1015.41 1015.49 1015.58 1015.65 1015.69 1015.69 1015.62 1015.49 1015.30 1015.03 1014.73 1014.39 1014.05 1013.72 1013.42 1013.16 1012.96 1012.82 1012.73 1012.70
1010.76 1011.16 1011.61 1012.07 1012.53 1012.94 1013.30 1013.59 1013.83 1014.02 1014.18 1014.33 1014.49 1014.64 1014.78 1014.92 1015.03 1015.11 1015.16 1015.18 1015.20 1015.21 1015.24 1015.29 1015.38 1015.49 1015.60 1015.70 1015.76 1015.77 1015.71 1015.58 1015.37 1015.09 1014.78 1014.43 1014.09 1013.77 1013.48 1013.24 1013.06 1012.93 1012.86
1010.37 1010.82 1011.31 1011.81 1012.28 1012.71 1013.09 1013.40 1013.67 1013.91 1014.12 1014.33 1014.52 1014.71 1014.88 1015.02 1015.12 1015.18 1015.19 1015.17 1015.13 1015.09 1015.08 1015.11 1015.18 1015.29 1015.43 1015.57 1015.69 1015.76 1015.77 1015.71 1015.57 1015.35 1015.09 1014.78 1014.47 1014.15 1013.86 1013.61 1013.41 1013.25 1013.15
1009.94 1010.45 1010.98 1011.49 1011.96 1012.38 1012.75 1013.07 1013.35 1013.61 1013.85 1014.10 1014.34 1014.58 1014.78 1014.95 1015.07 1015.13 1015.13 1015.08 1015.01 1014.95 1014.90 1014.90 1014.96 1015.06 1015.20 1015.36 1015.52 1015.64 1015.71 1015.72 1015.65 1015.51 1015.31 1015.07 1014.81 1014.53 1014.27 1014.03 1013.82 1013.65 1013.53
1009.54 1010.11 1010.67 1011.18 1011.63 1012.03 1012.36 1012.65 1012.92 1013.17 1013.43 1013.71 1013.99 1014.27 1014.53 1014.74 1014.89 1014.97 1014.98 1014.94 1014.87 1014.79 1014.73 1014.71 1014.74 1014.83 1014.97 1015.14 1015.31 1015.46 1015.58 1015.65 1015.64 1015.58 1015.46 1015.29 1015.09 1014.88 1014.66 1014.44 1014.25 1014.08 1013.94
Thickness
5784 5783 5782 5781 5780 5779 5777 5776 5775 5774 5773 5772 5771 5770 5768 5766 5765 5764 5763 5763 5762 5761 5760 5759 5758 5757 5756 5755 5754 5752 5750 5749 5749 5748 5746 5745 5745 5744 5743 5743 5742 5740 5740
5785 5784 5782 5780 5779 5778 5777 5776 5775 5774 5773 5772 5770 5769 5767 5765 5764 5762 5762 5761 5760 5759 5758 5757 5757 5756 5755 5753 5752 5751 5750 5749 5748 5746 5745 5744 5744 5743 5742 5742 5741 5740 5739
5786 5784 5782 5780 5779 5778 5777 5775 5774 5772 5771 5770 5768 5767 5766 5764 5763 5761 5760 5758 5757 5757 5756 5755 5754 5753 5752 5751 5750 5749 5748 5747 5746 5745 5744 5743 5742 5741 5741 5740 5740 5739 5738
5786 5784 5781 5779 5778 5777 5775 5773 5771 5769 5767 5766 5765 5764 5763 5762 5761 5760 5758 5757 5755 5754 5753 5752 5752 5751 5750 5749 5748 5747 5746 5745 5744 5743 5742 5741 5740 5739 5739 5739 5738 5738 5737
5785 5783 5780 5778 5777 5775 5773 5772 5769 5767 5764 5763 5762 5762 5761 5760 5759 5758 5756 5755 5753 5752 5751 5750 5749 5748 5748 5747 5746 5745 5745 5744 5743 5742 5741 5740 5738 5737 5737 5737 5736 5736 5735
5784 5782 5779 5777 5775 5772 5770 5768 5766 5765 5763 5761 5760 5759 5758 5758 5757 5755 5754 5753 5751 5750 5748 5747 5746 5745 5745 5744 5744 5743 5742 5741 5740 5739 5738 5737 5736 5735 5734 5734 5734 5734 5734
5783 5780 5777 5774 5772 5769 5767 5765 5763 5761 5759 5758 5754 5751 5752 5754 5754 5753 5752 5751 5749 5748 5746 5744 5743 5742 5741 5741 5741 5740 5740 5739 5738 5737 5736 5735 5734 5733 5732 5732 5732 5732 5732
5781 5778 5775 5772 5770 5766 5763 5762 5760 5757 5755 5755 5749 5743 5739 5741 5746 5750 5748 5747 5746 5745 5743 5742 5741 5739 5738 5738 5737 5737 5736 5736 5735 5734 5733 5732 5731 5730 5730 5730 5730 5729 5729
5778 5776 5772 5769 5766 5763 5760 5758 5757 5754 5750 5750 5749 5743 5734 5730 5735 5740 5742 5742 5741 5740 5739 5739 5737 5736 5735 5734 5734 5733 5732 5732 5732 5731 5730 5729 5728 5728 5727 5727 5727 5727 5727
5776 5774 5771 5768 5764 5760 5757 5756 5754 5752 5749 5744 5744 5744 5741 5737 5730 5727 5732 5735 5735 5735 5734 5734 5733 5732 5731 5730 5730 5729 5728 5728 5727 5727 5726 5726 5725 5724 5724 5724 5724 5723 5723
5773 5771 5768 5765 5761 5758 5755 5752 5751 5748 5746 5742 5739 5738 5736 5733 5731 5724 5720 5723 5726 5728 5729 5729 5728 5728 5727 5726 5725 5724 5724 5723 5723 5723 5722 5722 5721 5721 5720 5720 5720 5720 5719
5769 5767 5764 5761 5758 5755 5752 5749 5747 5745 5743 5740 5737 5735 5731 5728 5725 5721 5716 5715 5716 5719 5722 5723 5723 5722 5722 5721 5721 5720 5720 5719 5719 5719 5718 5718 5717 5716 5716 5716 5716 5716 5715
5764 5763 5761 5758 5755 5752 5750 5747 5744 5741 5739 5736 5734 5731 5729 5727 5726 5722 5716 5712 5711 5712 5715 5716 5717 5717 5717 5716 5716 5715 5715 5714 5714 5714 5714 5713 5713 5712 5711 5711 5711 5711 5710
5763 5761 5758 5754 5752 5750 5747 5743 5740 5738 5736 5733 5731 5728 5726 5725 5723 5720 5715 5710 5704 5703 5705 5707 5711 5711 5712 5712 5711 5710 5710 5709 5709 5708 5708 5708 5708 5707 5707 5706 5706 5706 5705
5762 5758 5754 5751 5748 5745 5743 5739 5736 5733 5732 5730 5727 5724 5722 5721 5720 5718 5716 5712 5704 5696 5696 5700 5702 5706 5707 5706 5706 5705 5704 5704 5704 5703 5703 5703 5702 5702 5702 5701 5701 5700 5700
5759 5755 5751 5748 5744 5741 5739 5735 5732 5729 5726 5724 5722 5719 5717 5716 5714 5713 5712 5710 5706 5700 5694 5696 5698 5700 5702 5702 5701 5701 5700 5700 5699 5698 5698 5698 5697 5697 5697 5696 5696 5695 5695
5755 5751 5747 5743 5740 5737 5734 5731 5727 5725 5721 5719 5717 5715 5712 5710 5708 5707 5706 5705 5702 5698 5692 5692 5694 5696 5695 5695 5696 5696 5695 5695 5694 5694 5693 5693 5692 5692 5692 5691 5690 5690 5689
5752 5748 5743 5739 5736 5732 5729 5726 5723 5720 5717 5714 5712 5709 5707 5706 5703 5701 5700 5698 5697 5695 5690 5687 5687 5688 5688 5689 5689 5689 5690 5689 5689 5689 5688 5687 5687 5686 5686 5685 5685 5684 5684
5747 5743 5739 5734 5731 5727 5724 5721 5718 5715 5712 5710 5707 5704 5702 5699 5696 5695 5693 5692 5691 5690 5687 5683 5681 5681 5682 5682 5682 5682 5683 5682 5683 5683 5682 5682 5681 5681 5681 5680 5679 5679 5678
5741 5737 5733 5729 5726 5723 5719 5716 5713 5710 5707 5705 5703 5700 5698 5695 5692 5690 5688 5686 5685 5682 5680 5677 5674 5674 5674 5675 5674 5672 5672 5673 5675 5676 5676 5676 5675 5675 5675 5674 5674 5673 5672
5736 5731 5728 5724 5721 5718 5715 5711 5708 5705 5702 5699 5697 5695 5694 5692 5690 5688 5685 5682 5679 5676 5673 5670 5668 5667 5666 5666 5666 5666 5665 5665 5666 5668 5667 5668 5668 5667 5667 5667 5667 5667 5666
5730 5726 5722 5718 5715 5713 5710 5707 5704 5700 5697 5694 5691 5689 5688 5687 5685 5683 5682 5679 5676 5672 5668 5665 5663 5661 5661 5661 5661 5661 5658 5656 5655 5660 5659 5659 5660 5660 5661 5661 5661 5661 5660
5724 5720 5717 5713 5709 5707 5705 5702 5699 5696 5692 5689 5686 5684 5683 5682 5679 5676 5675 5674 5672 5670 5668 5663 5659 5658 5657 5657 5655 5654 5652 5651 5651 5653 5652 5651 5653 5653 5655 5655 5655 5654 5654
5718 5714 5711 5708 5704 5702 5699 5697 5694 5690 5687 5684 5682 5679 5676 5674 5673 5671 5668 5666 5665 5664 5662 5660 5658 5656 5656 5655 5652 5650 5648 5646 5646 5647 5646 5643 5645 5646 5649 5649 5649 5648 5647
5712 5708 5706 5703 5699 5696 5694 5691 5688 5683 5680 5677 5676 5674 5672 5669 5667 5665 5662 5658 5657 5656 5657 5656 5654 5653 5651 5650 5649 5645 5641 5637 5636 5638 5639 5637 5638 5638 5640 5641 5642 5641 5641
5706 5703 5699 5697 5694 5691 5689 5687 5683 5678 5674 5671 5670 5668 5667 5665 5662 5659 5656 5653 5650 5649 5649 5648 5647 5646 5645 5645 5644 5641 5637 5633 5630 5630 5633 5631 5630 5629 5629 5633 5634 5634 5634